Terminal Aerodrome Forecast
Issued by NWS Sioux Falls, SD

Home | Current Version | Previous Version | Text Only | Print | Product List | Glossary On
Versions: 1 2 3 4 5 6 7 8 9 10 11 12 13 14 15 16 17 18 19 20 21 22 23 24 25 26 27 28 29 30 31 32
000
FTUS43 KFSD 251500 AAA
TAFSUX
TAF AMD
KSUX 251544Z 2516/2612 33009G22KT P6SM BKN100
     FM260300 35008KT P6SM TSRA BKN060CB
     FM260600 03007KT P6SM SCT025 BKN070
     FM261000 04006KT P6SM BKN025=

USA.gov is the U.S. government's official web portal to all federal, state and local government web resources and services.